owner,sensor,date,latitude,longitude,vertical_datum,wind_speed,wind_to_direction,wind_speed_of_gust,qcFlag 
DISL,ioos:station:DISL:DISL:1,2019-08-28T17:10:00Z,30.2513,-88.0778,9.68,5.14,359.7,-9999.0,'11111222,11144222,99999222' 
DISL,ioos:station:DISL:DISL:1,2019-08-28T18:10:00Z,30.2513,-88.0778,9.68,6.01,22.07,-9999.0,'11111222,11111222,99999222' 
DISL,ioos:station:DISL:DISL:1,2019-08-28T19:10:00Z,30.2513,-88.0778,9.68,5.49,25.57,-9999.0,'11111222,11111222,99999222' 
DISL,ioos:station:DISL:DISL:1,2019-08-28T20:10:00Z,30.2513,-88.0778,9.68,3.89,40.17,-9999.0,'11111222,11111222,99999222' 
DISL,ioos:station:DISL:DISL:1,2019-08-28T21:10:00Z,30.2513,-88.0778,9.68,4.38,34.39,-9999.0,'11111222,11111222,99999222' 
DISL,ioos:station:DISL:DISL:1,2019-08-28T22:10:00Z,30.2513,-88.0778,9.68,2.79,13.87,-9999.0,'11111222,11111222,99999222' 
DISL,ioos:station:DISL:DISL:1,2019-08-28T23:10:00Z,30.2513,-88.0778,9.68,3.39,333.4,-9999.0,'11111222,11111222,99999222' 
DISL,ioos:station:DISL:DISL:1,2019-08-29T00:10:00Z,30.2513,-88.0778,9.68,2.16,259.7,-9999.0,'11111222,11111222,99999222' 
DISL,ioos:station:DISL:DISL:1,2019-08-29T01:10:00Z,30.2513,-88.0778,9.68,3.4,337.1,-9999.0,'11111222,11111222,99999222' 
DISL,ioos:station:DISL:DISL:1,2019-08-29T02:10:00Z,30.2513,-88.0778,9.68,5.81,8.99,-9999.0,'11111222,11111222,99999222' 
DISL,ioos:station:DISL:DISL:1,2019-08-29T03:10:00Z,30.2513,-88.0778,9.68,5.59,18.16,-9999.0,'11111222,11111222,99999222' 
DISL,ioos:station:DISL:DISL:1,2019-08-29T04:10:00Z,30.2513,-88.0778,9.68,5.97,25.62,-9999.0,'11111222,11111222,99999222' 
DISL,ioos:station:DISL:DISL:1,2019-08-29T05:10:00Z,30.2513,-88.0778,9.68,6.07,28.48,-9999.0,'11111222,11111222,99999222' 
DISL,ioos:station:DISL:DISL:1,2019-08-29T06:10:00Z,30.2513,-88.0778,9.68,7.29,21.43,-9999.0,'11111222,11111222,99999222' 
DISL,ioos:station:DISL:DISL:1,2019-08-29T07:10:00Z,30.2513,-88.0778,9.68,6.87,19.43,-9999.0,'11111222,11111222,99999222' 
DISL,ioos:station:DISL:DISL:1,2019-08-29T15:10:00Z,30.2513,-88.0778,9.68,4.0,41.25,-9999.0,'11111222,11111222,99999222' 
DISL,ioos:station:DISL:DISL:1,2019-08-29T16:10:00Z,30.2513,-88.0778,9.68,4.01,43.58,-9999.0,'11111222,11111222,99999222' 
DISL,ioos:station:DISL:DISL:1,2019-08-29T17:10:00Z,30.2513,-88.0778,9.68,3.2,49.78,-9999.0,'11111222,11111222,99999222' 
DISL,ioos:station:DISL:DISL:1,2019-08-29T18:10:00Z,30.2513,-88.0778,9.68,2.91,48.02,-9999.0,'11111222,11111222,99999222' 
DISL,ioos:station:DISL:DISL:1,2019-08-29T19:10:00Z,30.2513,-88.0778,9.68,1.09,61.05,-9999.0,'11111222,11111222,99999222' 
DISL,ioos:station:DISL:DISL:1,2019-08-29T21:10:00Z,30.2513,-88.0778,9.68,0.67,46.23,-9999.0,'11111222,11111222,99999222' 
DISL,ioos:station:DISL:DISL:1,2019-08-29T22:10:00Z,30.2513,-88.0778,9.68,1.17,103.7,-9999.0,'11111222,11111222,99999222' 
DISL,ioos:station:DISL:DISL:1,2019-08-29T23:10:00Z,30.2513,-88.0778,9.68,1.52,134.0,-9999.0,'11111222,11111222,99999222' 
DISL,ioos:station:DISL:DISL:1,2019-08-30T00:10:00Z,30.2513,-88.0778,9.68,1.4,185.6,-9999.0,'11111222,11111222,99999222' 
DISL,ioos:station:DISL:DISL:1,2019-08-30T01:10:00Z,30.2513,-88.0778,9.68,1.27,269.3,-9999.0,'11111222,11111222,99999222' 
DISL,ioos:station:DISL:DISL:1,2019-08-30T02:10:00Z,30.2513,-88.0778,9.68,6.13,14.68,-9999.0,'11111222,11111222,99999222' 
DISL,ioos:station:DISL:DISL:1,2019-08-30T03:10:00Z,30.2513,-88.0778,9.68,5.63,33.03,-9999.0,'11111222,11111222,99999222' 
DISL,ioos:station:DISL:DISL:1,2019-08-30T04:10:00Z,30.2513,-88.0778,9.68,5.55,48.91,-9999.0,'11111222,11111222,99999222' 
DISL,ioos:station:DISL:DISL:1,2019-08-30T05:10:00Z,30.2513,-88.0778,9.68,5.29,51.08,-9999.0,'11111222,11111222,99999222' 
DISL,ioos:station:DISL:DISL:1,2019-08-30T06:10:00Z,30.2513,-88.0778,9.68,5.37,63.08,-9999.0,'11111222,11111222,99999222' 
DISL,ioos:station:DISL:DISL:1,2019-08-30T07:10:00Z,30.2513,-88.0778,9.68,5.62,64.56,-9999.0,'11111222,11111222,99999222' 
DISL,ioos:station:DISL:DISL:1,2019-08-30T08:10:00Z,30.2513,-88.0778,9.68,5.73,50.34,-9999.0,'11111222,11111222,99999222' 
DISL,ioos:station:DISL:DISL:1,2019-08-30T09:10:00Z,30.2513,-88.0778,9.68,5.24,27.98,-9999.0,'11111222,11111222,99999222' 
DISL,ioos:station:DISL:DISL:1,2019-08-30T10:10:00Z,30.2513,-88.0778,9.68,4.93,40.17,-9999.0,'11111222,11111222,99999222' 
DISL,ioos:station:DISL:DISL:1,2019-08-30T11:10:00Z,30.2513,-88.0778,9.68,4.14,46.13,-9999.0,'11111222,11111222,99999222' 
DISL,ioos:station:DISL:DISL:1,2019-08-30T12:10:00Z,30.2513,-88.0778,9.68,4.42,47.38,-9999.0,'11111222,11111222,99999222' 
DISL,ioos:station:DISL:DISL:1,2019-08-30T13:10:00Z,30.2513,-88.0778,9.68,4.42,43.74,-9999.0,'11111222,11111222,99999222' 
DISL,ioos:station:DISL:DISL:1,2019-08-30T14:10:00Z,30.2513,-88.0778,9.68,4.02,43.78,-9999.0,'11111222,11111222,99999222' 
DISL,ioos:station:DISL:DISL:1,2019-08-30T15:10:00Z,30.2513,-88.0778,9.68,3.47,40.38,-9999.0,'11111222,11111222,99999222' 
DISL,ioos:station:DISL:DISL:1,2019-08-30T16:10:00Z,30.2513,-88.0778,9.68,2.94,43.88,-9999.0,'11111222,11111222,99999222' 
DISL,ioos:station:DISL:DISL:1,2019-08-30T17:10:00Z,30.2513,-88.0778,9.68,2.12,57.29,-9999.0,'11111222,11111222,99999222' 
DISL,ioos:station:DISL:DISL:1,2019-08-30T18:10:00Z,30.2513,-88.0778,9.68,1.46,32.78,-9999.0,'11111222,11111222,99999222' 
DISL,ioos:station:DISL:DISL:1,2019-08-30T19:10:00Z,30.2513,-88.0778,9.68,0.73,17.26,-9999.0,'11111222,11111222,99999222' 
DISL,ioos:station:DISL:DISL:1,2019-08-30T20:10:00Z,30.2513,-88.0778,9.68,0.43,86.5,-9999.0,'11111222,11111222,99999222' 
DISL,ioos:station:DISL:DISL:1,2019-08-30T21:10:00Z,30.2513,-88.0778,9.68,1.37,103.4,-9999.0,'11111222,11111222,99999222' 
DISL,ioos:station:DISL:DISL:1,2019-08-30T22:10:00Z,30.2513,-88.0778,9.68,1.97,156.1,-9999.0,'11111222,11111222,99999222' 
DISL,ioos:station:DISL:DISL:1,2019-08-30T23:10:00Z,30.2513,-88.0778,9.68,1.68,215.7,-9999.0,'11111222,11111222,99999222' 
DISL,ioos:station:DISL:DISL:1,2019-08-31T00:10:00Z,30.2513,-88.0778,9.68,0.97,245.7,-9999.0,'11111222,11111222,99999222' 
DISL,ioos:station:DISL:DISL:1,2019-08-31T01:10:00Z,30.2513,-88.0778,9.68,1.03,279.3,-9999.0,'11111222,11111222,99999222' 
DISL,ioos:station:DISL:DISL:1,2019-08-31T02:10:00Z,30.2513,-88.0778,9.68,1.19,253.9,-9999.0,'11111222,11111222,99999222' 
DISL,ioos:station:DISL:DISL:1,2019-08-31T03:10:00Z,30.2513,-88.0778,9.68,1.27,260.2,-9999.0,'11111222,11111222,99999222' 
DISL,ioos:station:DISL:DISL:1,2019-08-31T04:10:00Z,30.2513,-88.0778,9.68,1.54,268.7,-9999.0,'11111222,11111222,99999222' 
DISL,ioos:station:DISL:DISL:1,2019-08-31T05:10:00Z,30.2513,-88.0778,9.68,4.24,19.67,-9999.0,'11111222,11111222,99999222' 
DISL,ioos:station:DISL:DISL:1,2019-08-31T06:10:00Z,30.2513,-88.0778,9.68,5.54,72.29,-9999.0,'11111222,11111222,99999222' 
DISL,ioos:station:DISL:DISL:1,2019-08-31T07:10:00Z,30.2513,-88.0778,9.68,6.5,79.53,-9999.0,'11111222,11111222,99999222' 
DISL,ioos:station:DISL:DISL:1,2019-08-31T08:10:00Z,30.2513,-88.0778,9.68,5.07,68.14,-9999.0,'11111222,11111222,99999222' 
DISL,ioos:station:DISL:DISL:1,2019-08-31T09:10:00Z,30.2513,-88.0778,9.68,5.31,72.7,-9999.0,'11111222,11111222,99999222' 
DISL,ioos:station:DISL:DISL:1,2019-08-31T10:10:00Z,30.2513,-88.0778,9.68,4.98,65.36,-9999.0,'11111222,11111222,99999222' 
DISL,ioos:station:DISL:DISL:1,2019-08-31T11:10:00Z,30.2513,-88.0778,9.68,4.79,55.67,-9999.0,'11111222,11111222,99999222' 
DISL,ioos:station:DISL:DISL:1,2019-08-31T12:10:00Z,30.2513,-88.0778,9.68,5.52,45.24,-9999.0,'11111222,11111222,99999222' 
DISL,ioos:station:DISL:DISL:1,2019-08-31T13:10:00Z,30.2513,-88.0778,9.68,5.98,42.82,-9999.0,'11111222,11111222,99999222' 
DISL,ioos:station:DISL:DISL:1,2019-08-31T14:10:00Z,30.2513,-88.0778,9.68,5.7,46.57,-9999.0,'11111222,11111222,99999222' 
DISL,ioos:station:DISL:DISL:1,2019-08-31T15:10:00Z,30.2513,-88.0778,9.68,4.6,43.62,-9999.0,'11111222,11111222,99999222' 
DISL,ioos:station:DISL:DISL:1,2019-08-31T16:10:00Z,30.2513,-88.0778,9.68,4.08,48.99,-9999.0,'11111222,11111222,99999222' 
DISL,ioos:station:DISL:DISL:1,2019-08-31T17:10:00Z,30.2513,-88.0778,9.68,3.68,68.8,-9999.0,'11111222,11111222,99999222' 
DISL,ioos:station:DISL:DISL:1,2019-08-31T18:10:00Z,30.2513,-88.0778,9.68,4.17,81.4,-9999.0,'11111222,11111222,99999222' 
DISL,ioos:station:DISL:DISL:1,2019-08-31T19:10:00Z,30.2513,-88.0778,9.68,6.66,113.2,-9999.0,'11111222,11111222,99999222' 
DISL,ioos:station:DISL:DISL:1,2019-08-31T20:10:00Z,30.2513,-88.0778,9.68,6.07,120.4,-9999.0,'11111222,11111222,99999222' 
DISL,ioos:station:DISL:DISL:1,2019-08-31T21:10:00Z,30.2513,-88.0778,9.68,5.52,96.1,-9999.0,'11111222,11111222,99999222' 
DISL,ioos:station:DISL:DISL:1,2019-08-31T22:10:00Z,30.2513,-88.0778,9.68,5.58,110.3,-9999.0,'11111222,11111222,99999222' 
DISL,ioos:station:DISL:DISL:1,2019-08-31T23:10:00Z,30.2513,-88.0778,9.68,5.83,91.8,-9999.0,'11111222,11111222,99999222' 
 
DISCLAIMER: The Gulf of Mexico Coastal and Ocean Observing (GCOOS) Data Portal aggregates data from the regional data providers for the convenience of all data users. Data published on this website should not be used for navigation or certain other uses as we cannot guarantee data accuracy or availability. The data and delivery services are provided 'as is' without warranty of any kind. Data Source: Gulf of Mexico Coastal Ocean Observing System Data Portal (http://data.gcoos.org/) 
